{"data":{"norad_id":59602,"intl_designator":"2024-080B","name":"STARLINK-31778","alt_names":[],"object_type":"PAYLOAD","status":"ACTIVE","operator":null,"country":"US","launch_date":"2024-04-28","launch_site_code":"AFETR","launch_vehicle":null,"mission":null,"orbit_class":"UNKNOWN","rcs_meters":null,"size_class":null,"mass_kg":null,"dimensions":null,"purposes":["comms"],"wikipedia_slug":null,"has_3d_model":false,"image_url":null,"decayed_at":null,"tle_current":{"epoch":"2026-05-24T19:54:11.400768Z","epoch_age_seconds":83660,"freshness":"FRESH","line1":"1 59602U 24080B   26144.82929862  .00001774  00000+0  73960-4 0  9996","line2":"2 59602  43.0029 324.7648 0001661 272.7744  87.2917 15.27584134116218","mean_motion":15.27584134,"eccentricity":0.0001661,"inclination_deg":43.0029,"raan_deg":324.7648,"arg_perigee_deg":272.7744,"mean_anomaly_deg":87.2917,"bstar":7.396e-5,"rev_number":11621,"period_min":94.266493605779,"perigee_km":481.89707642991,"apogee_km":484.17635833883,"semimajor_km":6861.1737173844,"source":"CELESTRAK","updated_at":"2026-05-25T13:38:19.007512Z"}}}